Flag for Poland Weather past 2 weeks in Warsaw, Poland

Now
41 °F

Clear.


Feels Like: 35 °F
Forecast: 34 / 51 °F
Wind: 10 mph from Northwest

Location: Warsaw Okecie Airport

Current Time: Apr 20, 2015 at 3:42:11 AM

Latest Report: Apr 20, 2015 at 3:00 AM


Visibility: 10 mi

Pressure: 29.95 "Hg

Humidity: 66%

Dew point: 30 °F

Location of WarsawLocation

Historic Weather in Warsaw — Graph

°F

Warsaw temperature yesterday

Maximum temperature yesterday: 48 °F (at 4:30 PM)
Minimum temperature yesterday: 32 °F (at 2:30 AM)
Average temperature yesterday: 41 °F

Past Weeks' High & Low Weather Summary

 TemperatureHumidityPressure
High70 °F (Apr 11, 2:00 PM)100% (Apr 5, 6:00 AM)30.51 "Hg (Apr 5, 6:00 AM)
Low30 °F (Apr 7, 5:30 AM)23% (Apr 9, 6:00 PM)29.68 "Hg (Apr 16, 1:00 AM)
Average46 °F65%30.10 "Hg
* Reported Apr 5 2:00 AM — Apr 20 2:30 AM, Warsaw, Weather by CustomWeather, © 2015

Note: Actual official high and low records may vary slightly from our data, if they occured in-between our weather recording intervals... More about our weather records

Advertising

Warsaw weather history for previous 24 hours

 ConditionsComfort  
Time TempWeatherWind HumidityBarometerVisibility
2:30 AM
Mon, Apr 20
41 °FClear.10 mph66%29.95 "Hg10 mi
2:00 AM39 °FClear.10 mph70%29.98 "Hg10 mi
1:30 AM41 °FClear.12 mph66%29.98 "Hg10 mi
1:00 AM41 °FPassing clouds.10 mph66%29.98 "HgN/A
12:30 AM43 °FPassing clouds.10 mph61%30.01 "HgN/A
12:00 AM43 °FPassing clouds.9 mph61%30.01 "HgN/A
11:30 PM
Sun, Apr 19
43 °FPassing clouds.10 mph61%30.01 "HgN/A
11:00 PM41 °FPassing clouds.9 mph66%30.04 "HgN/A
10:30 PM43 °FClear.10 mph57%30.04 "Hg10 mi
10:00 PM43 °FClear.12 mph57%30.04 "Hg10 mi
9:30 PM43 °FClear.13 mph61%30.04 "Hg10 mi
9:00 PM45 °FClear.13 mph57%30.04 "Hg10 mi
8:30 PM45 °FSunny.14 mph57%30.04 "Hg10 mi
8:00 PM45 °FSunny.13 mph61%30.04 "Hg10 mi
7:30 PM45 °FSunny.12 mph61%30.04 "Hg10 mi
7:00 PM46 °FPassing clouds.14 mph53%30.01 "HgN/A
6:30 PM46 °FScattered clouds.14 mph57%30.04 "HgN/A
6:00 PM46 °FSunny.13 mph57%30.04 "Hg10 mi
5:30 PM46 °FPartly sunny.15 mph57%30.04 "HgN/A
5:00 PM46 °FPartly sunny.15 mph57%30.04 "HgN/A
4:30 PM48 °FPassing clouds.15 mph54%30.04 "HgN/A
4:00 PM46 °FPassing clouds.14 mph57%30.04 "HgN/A
3:30 PM46 °FPartly sunny.17 mph57%30.04 "HgN/A
3:00 PM46 °FPartly sunny.10 mph66%30.04 "HgN/A
2:30 PM46 °FPartly sunny.9 mph66%30.07 "HgN/A
2:00 PM45 °FPartly sunny.9 mph71%30.04 "HgN/A
1:30 PM46 °FScattered clouds.12 mph66%30.07 "HgN/A
1:00 PM45 °FPartly sunny.9 mph76%30.07 "HgN/A
12:30 PM43 °FBroken clouds.9 mph81%30.07 "HgN/A
12:00 PM41 °FLight rain. Partly sunny.8 mph87%30.07 "HgN/A
11:30 AM41 °FPartly sunny.7 mph87%30.07 "HgN/A
11:00 AM39 °FLight rain. Broken clouds.7 mph87%30.07 "HgN/A
10:30 AM39 °FLight rain. Partly sunny.8 mph87%30.07 "HgN/A
10:00 AM39 °FLight rain. Partly sunny.8 mph87%30.07 "HgN/A
9:30 AM39 °FLight rain. Passing clouds.8 mph87%30.07 "HgN/A
9:00 AM39 °FLight rain. Passing clouds.10 mph81%30.07 "HgN/A
8:30 AM41 °FLight rain. Partly sunny.10 mph76%30.07 "HgN/A
8:00 AM39 °FPassing clouds.8 mph75%30.07 "HgN/A
7:30 AM37 °FPassing clouds.9 mph81%30.07 "HgN/A
7:00 AM37 °FPassing clouds.9 mph81%30.07 "HgN/A
6:30 AM37 °FPassing clouds.7 mph87%30.07 "HgN/A
6:00 AM37 °FClear.7 mph87%30.07 "Hg10 mi
5:30 AM37 °FClear.7 mph87%30.07 "Hg10 mi
5:00 AM36 °FClear.5 mph87%30.07 "Hg10 mi
4:30 AM34 °FClear.5 mph93%30.07 "Hg10 mi
4:00 AM34 °FClear.3 mph93%30.07 "Hg10 mi
3:30 AM34 °FClear.3 mph93%30.07 "Hg10 mi
3:00 AM34 °FClear.5 mph87%30.07 "Hg10 mi
Weather by CustomWeather, © 2015

See weather overviewHow to use our weather pages